Location: Chevoux
(46.3801°N, 4.9476°E)
Time: 05:10:07
(UTC+00:00)

Envisat - Pass Details

Date: 07 December 2021
Orbit: 764 x 766 km, 98.2° (Epoch: 16 January)

Event Time Altitude Azimuth Distance (km) Brightness Sun altitude
Rises 16:36:50 0° 194° (SSW) 3,219 6.9 -7.3°
Reaches altitude 10° 16:39:24 10° 206° (SSW) 2,298 6.3 -7.7°
Maximum altitude 16:43:47 29° 266° (W) 1,380 5.2 -8.4°
Drops below altitude 10° 16:48:12 10° 326° (NW) 2,313 5.6 -9.1°
Sets 16:50:49 0° 337° (NNW) 3,244 6.3 -9.5°
